GEFSNGP_500_meanwind_018.txt.gz
Wind_Speed
35 35 35 36 36 35 34 32 30 27 25 25 27 28 28 29 29 28 28 27 28 29 30 30 32 34 36 39 43 47 51 54 58 61 64 67 69 71 73 75 76 77 79 81
33 33 34 34 36 37 36 35 33 31 28 28 30 30 30 29 29 28 28 28 29 29 30 31 34 37 40 44 47 51 54 58 62 65 67 70 72 73 74 75 76 78 80 83
30 32 33 34 32 33 33 32 32 30 27 30 30 30 29 29 28 28 29 29 30 30 32 35 38 40 44 47 51 54 58 62 65 68 70 71 72 73 73 75 76 79 82 85
28 29 30 28 29 30 29 29 29 28 27 29 29 28 28 28 28 29 29 30 31 32 35 37 40 43 47 50 54 58 62 66 69 70 71 71 71 72 74 76 78 82 85 88
25 25 24 23 24 25 26 25 26 26 26 27 26 27 27 27 28 29 30 31 33 35 37 40 42 46 50 54 58 62 66 69 70 69 69 69 71 72 75 77 81 85 88 90
22 20 18 19 21 23 23 22 22 23 24 25 25 27 27 29 30 31 32 33 35 37 39 42 45 50 54 58 62 66 68 69 68 67 68 69 71 74 77 81 84 87 90 91
20 19 18 18 19 20 20 19 21 22 24 26 27 29 30 30 31 32 33 34 36 38 41 45 50 54 58 62 65 67 67 66 65 66 68 70 74 77 81 85 88 90 90 89
20 20 17 18 19 20 20 21 23 25 26 27 27 28 29 30 31 32 33 35 38 42 46 50 54 58 62 64 65 64 63 63 64 66 70 74 78 82 86 89 90 90 87 84
18 16 16 17 18 19 21 22 23 24 25 26 26 27 28 29 31 33 35 38 42 46 50 54 58 61 62 62 61 60 60 61 65 69 73 78 82 86 89 91 90 87 83 78
15 14 14 14 16 17 19 20 22 23 24 25 26 27 29 31 33 36 39 43 47 50 54 57 59 59 58 57 56 57 60 64 68 73 78 82 86 89 91 90 86 82 77 73
13 12 13 14 15 17 19 21 22 24 25 27 28 30 32 35 37 40 44 47 50 53 56 56 56 54 53 54 56 59 64 68 73 78 82 86 89 90 89 85 81 77 73 71
13 14 14 16 17 19 21 23 26 27 29 31 32 34 36 39 41 44 47 50 52 53 53 52 51 51 52 55 59 63 68 73 78 82 86 89 90 88 84 79 73 71 70 71
18 19 20 21 23 25 26 28 29 31 32 33 35 37 39 42 44 47 49 50 50 49 49 48 49 51 54 59 63 68 74 78 82 86 90 91 89 85 78 72 68 68 69 71
25 26 27 28 29 30 30 31 31 32 33 35 37 39 41 44 46 47 47 47 46 46 47 48 51 54 59 64 69 74 79 83 86 89 91 89 84 78 73 69 67 67 69 72
31 32 32 32 33 32 32 32 32 33 35 37 39 41 43 44 45 45 44 44 44 46 48 51 55 59 64 69 74 78 82 86 89 90 88 83 77 72 69 69 69 70 71 72
35 35 35 34 34 33 33 33 34 35 37 38 40 41 42 42 42 42 42 44 46 48 51 55 59 64 69 74 78 82 85 88 90 87 82 75 71 69 69 70 71 72 72 69
35 34 34 33 33 34 34 35 36 37 38 39 40 40 40 40 41 42 44 46 49 52 56 60 64 69 74 78 81 85 87 88 86 80 74 70 69 70 71 72 73 72 67 60
34 34 34 33 34 34 34 35 36 37 38 39 39 39 39 40 42 45 47 49 53 57 61 65 69 73 77 81 84 87 87 85 79 73 69 69 70 71 73 73 71 65 57 50
33 33 33 33 33 34 35 35 36 37 38 38 38 39 40 42 45 47 50 53 57 61 65 69 73 76 80 83 86 86 83 78 72 69 68 69 71 73 73 70 63 55 48 43
31 32 32 33 33 34 35 35 36 37 37 38 39 40 43 45 48 51 54 58 62 65 69 73 76 79 82 84 85 82 77 71 68 68 69 71 72 72 68 61 53 45 40 35
32 32 33 33 33 33 34 35 36 36 37 39 41 43 46 49 52 55 59 62 65 69 72 75 78 80 83 83 81 75 70 67 67 68 70 72 70 65 58 50 43 37 32 28
32 32 32 32 32 33 33 34 36 38 40 42 44 47 50 53 56 59 62 66 69 71 74 77 79 82 82 79 74 69 67 66 68 70 71 68 63 55 47 40 35 30 26 22
31 31 31 31 32 33 35 37 39 41 43 45 48 51 54 57 60 63 66 68 71 73 76 78 80 81 78 73 68 65 65 67 69 69 66 60 53 46 39 33 29 24 21 16
30 30 32 33 34 36 38 40 42 44 47 49 52 55 58 61 64 66 68 70 72 75 77 79 79 76 71 66 64 64 66 68 67 63 57 52 45 39 33 28 24 19 14 7
31 33 34 36 38 39 41 43 46 48 51 53 56 59 62 64 66 68 69 71 73 76 77 77 73 69 65 63 63 65 67 66 61 56 50 45 39 34 28 23 18 12 6 3
34 36 38 39 41 43 45 47 50 53 55 58 61 63 65 66 67 68 70 72 75 76 74 70 66 63 62 63 65 66 64 60 54 49 44 39 34 29 23 17 10 3 4 11
38 40 41 43 45 48 50 52 55 58 60 62 64 64 65 66 67 69 72 74 74 72 68 64 61 61 62 65 65 63 58 53 48 43 39 35 30 23 16 9 3 6 13 19

GEFSNGP_500_meanwind_024.txt.gz
Wind_Speed
23 24 25 26 28 29 30 29 27 26 25 24 23 23 23 24 25 25 26 28 29 30 32 33 34 34 35 36 37 38 40 41 44 46 49 53 57 61 65 68 69 69 69 69
22 22 22 22 24 26 28 28 27 26 25 25 25 23 23 24 25 26 27 29 30 32 33 34 35 36 36 37 38 40 42 44 46 49 53 56 61 64 67 68 67 66 68 71
20 20 21 22 21 23 24 25 25 25 24 27 27 26 26 26 27 28 29 30 32 33 34 35 35 36 37 38 40 42 44 46 49 52 56 60 64 66 66 65 65 67 70 75
18 18 19 19 20 22 23 24 25 25 27 30 28 28 28 28 29 30 30 32 33 33 34 34 35 36 38 39 41 43 45 48 52 56 60 63 64 64 63 63 66 70 75 80
19 18 17 17 19 21 22 22 24 25 28 29 28 29 29 29 29 30 31 32 32 33 33 34 36 37 39 40 42 44 47 51 55 59 62 62 62 61 63 66 70 75 80 85
19 18 18 18 18 18 19 21 22 24 26 26 27 28 26 28 29 29 30 30 31 32 33 35 36 38 39 41 43 47 50 54 58 60 61 60 60 62 65 70 75 80 84 89
20 19 18 17 17 17 17 17 20 22 23 24 26 25 25 27 27 28 28 29 31 33 34 35 36 38 40 43 46 50 54 57 58 58 58 59 62 65 70 74 79 84 88 93
20 19 17 17 17 17 16 18 20 21 21 22 23 24 24 24 25 26 28 30 31 32 33 35 37 39 42 45 49 53 55 56 56 57 58 61 64 69 74 79 84 88 92 96
19 17 17 17 17 17 17 17 18 18 19 20 21 22 23 25 26 27 28 29 30 32 34 36 38 41 44 48 51 54 54 54 55 57 60 64 69 74 79 83 88 92 96 98
19 18 18 18 16 16 15 16 16 17 18 19 20 21 23 24 24 26 27 29 31 33 35 38 41 44 47 50 51 52 52 53 55 59 63 68 73 78 83 87 92 96 98 99
18 18 18 17 16 16 14 14 14 14 15 17 18 19 21 23 25 27 29 31 33 35 37 40 43 46 48 49 50 50 52 54 58 62 66 71 77 82 86 91 95 98 98 97
17 18 17 16 15 14 13 12 12 13 14 16 18 21 23 25 27 29 31 33 34 36 39 42 45 46 47 47 49 50 53 57 61 66 71 75 80 84 89 93 95 97 95 91
16 17 16 15 13 12 12 12 14 16 18 20 23 25 27 28 29 31 32 34 36 39 41 43 44 45 45 47 49 52 56 60 65 70 75 79 83 87 90 92 93 92 88 82
16 16 16 14 13 13 15 16 19 21 23 25 27 29 30 30 31 33 34 36 38 40 42 42 43 44 46 48 52 56 60 64 69 74 79 83 87 90 93 93 91 85 79 76
18 17 17 16 17 19 21 23 25 26 28 30 31 31 32 32 33 34 36 38 39 40 41 42 43 45 47 51 55 59 64 69 73 78 83 86 89 91 92 90 86 79 74 71
21 21 21 22 23 25 27 28 30 31 32 33 33 32 32 33 34 35 37 38 39 39 41 42 44 47 51 55 59 64 68 73 78 82 85 87 89 90 89 84 78 73 71 67
26 26 27 28 29 30 32 33 34 34 34 33 33 33 33 34 35 36 37 38 39 40 41 44 47 51 54 59 63 68 72 77 81 84 86 88 89 87 83 77 72 69 66 62
31 31 31 32 33 34 34 34 34 33 33 32 33 33 34 34 35 36 38 39 39 41 44 47 50 54 58 63 68 72 77 80 83 85 87 88 86 82 76 71 68 65 60 53
32 32 32 32 33 33 33 33 33 32 32 33 33 34 34 35 36 37 38 39 41 44 47 50 54 58 63 68 72 76 79 81 83 85 86 85 80 74 69 67 64 59 52 44
30 30 30 31 31 31 31 31 31 32 32 33 33 34 35 36 37 38 39 41 44 47 50 54 58 63 68 72 76 79 81 82 84 85 83 79 72 67 65 62 57 50 43 36
28 28 28 29 29 29 30 30 31 32 32 33 34 35 36 37 38 39 41 45 48 51 55 59 63 68 72 75 78 80 81 83 84 82 77 71 66 63 60 55 48 42 35 29
26 26 27 27 28 28 29 30 31 32 32 33 34 35 36 38 40 42 45 48 52 56 60 64 68 72 75 77 79 80 82 83 81 75 69 64 62 58 54 47 41 35 28 22
25 26 26 27 27 28 29 30 31 32 33 34 35 36 38 40 43 46 49 52 56 60 64 68 71 74 76 77 79 81 82 79 73 67 62 60 57 53 47 40 34 27 20 13
25 26 27 28 28 29 30 31 32 33 34 35 37 38 41 43 46 49 53 57 61 64 68 71 73 75 76 78 80 81 77 71 65 61 59 56 52 47 40 34 26 19 11 5
27 27 28 29 30 30 32 32 33 34 35 37 39 41 44 47 50 54 57 61 64 67 70 72 74 75 77 80 79 75 68 63 60 58 55 51 46 39 33 25 17 9 3 6
28 28 29 29 30 31 32 33 34 35 37 39 42 45 48 51 54 58 61 64 67 69 71 72 74 77 79 77 72 66 61 59 58 55 51 45 39 32 25 15 7 2 8 12
27 28 28 29 30 32 33 34 36 38 41 43 46 49 52 55 58 61 63 66 67 69 71 73 76 77 74 69 63 59 58 57 54 50 44 38 32 24 14 5 3 11 15 18

GEFSNGP_500_meanwind_030.txt.gz
Wind_Speed
6 12 17 22 26 27 25 19 19 21 22 22 23 24 24 23 22 21 20 19 19 19 19 19 21 22 25 27 29 31 33 35 37 39 41 43 45 48 50 53 56 59 61 63
8 12 15 19 22 23 22 21 22 24 25 25 25 24 23 22 20 19 18 18 18 18 18 19 21 24 26 28 30 32 34 36 38 40 42 45 47 49 52 55 58 60 62 63
11 12 14 16 18 19 19 21 23 22 20 20 21 21 21 20 19 18 17 17 17 18 19 21 23 25 28 29 31 33 35 37 39 42 44 46 48 51 54 57 59 61 62 64
11 12 13 16 17 18 19 19 19 19 20 19 19 19 18 18 17 17 17 17 18 19 21 23 25 27 28 30 31 33 36 38 41 43 45 48 51 53 56 58 59 61 63 65
10 10 12 14 15 16 19 21 20 19 19 18 18 17 17 17 18 18 18 19 20 21 22 24 25 26 28 30 32 35 37 40 42 44 47 50 53 55 57 58 59 62 65 69
9 10 11 12 14 15 16 17 17 17 17 16 16 15 15 18 19 19 19 19 20 21 22 24 25 26 29 31 34 36 38 41 43 46 49 51 53 55 56 58 60 64 68 73
9 9 10 11 12 13 14 15 16 16 16 16 16 16 17 17 17 18 19 19 20 21 22 24 25 28 30 32 35 37 39 42 45 48 50 52 53 55 56 59 62 67 72 77
10 10 10 11 11 12 13 14 14 15 15 15 15 15 15 16 16 17 17 18 19 20 22 24 27 29 31 33 36 39 41 44 46 49 50 51 53 55 58 61 65 70 75 81
13 13 11 11 12 12 12 13 13 13 13 13 13 13 14 14 14 15 16 17 19 21 24 26 28 30 32 35 38 40 43 45 47 49 50 51 53 56 60 65 69 74 80 85
14 14 13 13 13 13 13 13 12 12 12 12 12 12 12 13 13 14 16 18 20 22 24 27 29 32 34 37 39 41 44 45 47 48 50 52 56 60 64 69 74 79 84 89
15 15 15 14 14 14 13 13 12 11 11 11 11 11 11 12 13 14 16 18 21 24 26 29 31 33 36 38 40 42 44 45 47 48 51 54 59 63 68 73 79 84 88 92
15 16 16 16 15 14 13 12 11 11 10 10 10 10 11 12 13 15 18 20 23 26 28 30 32 34 36 39 41 43 44 45 47 49 53 57 61 67 73 78 83 88 92 94
16 16 16 16 15 15 14 13 11 10 10 9 9 10 11 13 15 18 21 23 25 27 29 31 33 35 38 40 41 43 44 46 48 52 56 60 65 70 75 80 85 90 93 93
16 16 17 17 16 16 15 14 12 11 10 10 11 12 14 17 19 22 24 26 28 29 31 33 35 37 39 40 42 43 45 48 51 55 59 64 69 74 78 82 86 89 90 88
16 16 16 16 16 16 15 14 12 11 11 12 14 16 19 21 23 25 26 28 29 30 32 34 36 38 39 41 42 44 47 50 54 58 63 68 73 77 81 85 88 88 85 77
17 17 17 16 16 15 15 14 14 13 14 16 19 21 23 25 26 27 28 29 30 31 33 35 37 38 40 42 43 46 49 53 58 62 67 72 76 80 84 87 87 83 76 68
18 18 18 17 17 18 18 18 18 18 20 22 24 26 26 27 28 28 29 30 31 32 34 36 37 39 41 43 45 49 52 57 62 67 71 75 79 83 86 86 82 75 67 61
19 19 19 20 20 20 21 21 22 23 25 26 27 28 28 28 28 29 30 31 32 34 35 37 38 40 42 45 48 52 56 61 66 70 74 78 82 85 85 81 74 66 59 53
21 21 22 22 23 23 24 25 26 27 28 28 28 28 28 28 29 29 30 31 33 34 36 37 39 41 44 47 51 56 60 65 69 73 77 81 84 84 80 73 65 58 52 43
22 23 23 24 25 25 26 27 28 28 28 28 28 28 28 28 29 30 31 32 34 35 36 38 40 43 47 51 55 59 64 68 72 76 80 83 83 79 72 65 58 51 42 33
23 24 25 25 26 27 27 28 28 28 28 28 28 28 28 29 29 30 31 33 34 35 37 40 43 47 51 55 59 63 67 71 75 79 81 82 78 71 64 57 50 41 31 22
23 23 24 25 25 26 26 26 27 27 27 27 27 27 28 28 29 30 32 33 35 37 40 43 46 50 54 58 63 67 71 74 78 80 81 77 71 63 56 50 41 31 21 12
21 22 22 23 24 25 25 25 25 25 25 26 26 27 28 28 29 30 32 34 36 39 43 46 50 54 58 62 66 70 73 77 79 80 76 70 63 56 49 40 30 20 11 4
21 21 22 23 23 23 23 23 24 24 25 25 26 27 27 28 29 31 34 36 39 43 46 50 54 58 62 65 69 72 76 78 79 75 69 62 56 49 40 30 20 10 3 3
21 21 22 22 22 23 23 23 24 24 24 25 25 26 27 29 31 34 37 40 43 46 50 53 57 61 65 68 72 75 77 78 74 67 60 54 48 39 29 19 9 1 5 9
22 22 22 22 22 22 22 23 23 23 23 24 25 27 29 32 34 37 40 43 46 50 54 57 61 64 67 71 74 76 76 72 65 59 53 47 39 29 19 8 1 7 12 14
22 22 22 22 22 22 22 22 22 23 24 26 28 30 33 35 38 40 43 47 50 54 57 60 63 67 70 72 75 75 70 63 56 51 45 38 29 19 8 2 10 14 16 17

GEFSNGP_500_meanwind_036.txt.gz
Wind_Speed
17 17 16 16 13 11 11 9 5 4 8 15 21 27 32 34 34 34 34 33 33 32 31 31 31 30 29 28 28 28 28 28 29 31 33 35 38 41 43 45 47 50 52 55
13 13 14 12 8 5 3 1 4 9 16 20 25 28 31 32 31 31 31 30 29 28 28 28 28 27 26 26 26 26 27 28 29 32 34 37 39 41 44 46 49 51 54 57
11 11 12 12 8 3 1 4 9 15 19 22 25 28 29 28 28 28 27 26 25 25 26 26 25 25 24 24 24 25 26 28 31 33 36 38 40 42 45 48 51 53 56 59
10 10 12 12 10 7 7 10 14 18 21 23 24 26 27 27 26 26 25 24 24 24 23 23 22 22 22 22 23 25 27 30 32 34 36 38 41 44 46 49 52 55 58 61
7 9 9 8 9 8 9 11 15 17 19 22 23 23 24 23 23 23 23 21 21 20 20 19 19 20 21 22 24 27 29 30 32 35 37 40 42 45 48 51 54 57 59 61
4 6 6 6 7 8 10 12 13 14 16 19 19 19 19 19 18 18 18 17 17 17 17 18 19 20 21 23 25 27 29 31 33 36 38 41 43 46 50 53 55 58 59 60
1 2 3 3 4 5 7 8 9 11 12 14 14 14 15 15 15 15 15 15 16 17 18 18 19 20 22 23 25 27 30 32 34 37 39 42 45 48 51 54 56 57 58 61
4 3 1 1 2 3 5 6 7 8 9 10 11 11 11 11 12 13 14 15 15 17 18 18 19 20 22 24 26 28 30 33 35 38 41 44 47 50 52 54 55 56 59 62
8 6 4 3 3 3 3 5 6 7 8 9 10 10 10 11 11 12 13 14 15 16 17 18 19 20 22 24 26 29 31 34 37 40 43 45 48 50 52 53 55 57 61 65
10 9 7 6 5 4 4 5 6 7 8 9 9 10 10 11 12 12 13 14 15 15 16 17 19 21 23 25 27 30 33 36 38 41 44 47 48 50 52 54 56 60 64 68
13 12 11 9 8 7 6 6 7 7 8 8 9 9 10 10 11 11 12 13 14 14 16 18 19 22 24 27 30 32 35 37 40 43 45 47 48 50 52 55 59 64 68 73
15 13 12 10 10 9 8 8 8 9 9 9 9 9 10 10 10 11 11 12 13 15 17 19 21 24 26 29 31 34 36 39 41 43 45 47 48 51 55 59 63 68 73 78
15 14 13 12 11 11 10 10 10 10 9 9 9 9 9 9 9 10 11 13 15 17 19 22 24 26 29 31 33 35 38 40 42 44 45 47 49 52 57 62 68 73 78 82
15 14 14 14 13 12 12 11 11 10 10 10 10 9 9 9 10 11 13 15 17 20 22 24 27 28 30 32 35 37 39 41 42 44 46 48 52 56 60 64 70 76 81 85
14 14 14 14 13 13 13 13 13 11 11 11 11 11 11 11 12 14 16 19 21 23 25 27 28 30 32 34 36 38 40 41 43 45 47 51 55 60 64 70 75 79 83 85
13 13 13 13 14 14 14 14 14 13 12 12 12 12 13 14 16 18 21 22 24 26 27 28 30 32 34 35 37 38 40 41 44 47 50 55 59 64 69 74 79 82 84 82
12 12 12 13 13 14 15 15 15 15 14 14 15 16 17 19 21 23 24 26 27 28 29 30 31 33 34 36 37 39 41 43 46 50 54 59 63 68 73 78 81 83 81 75
13 13 13 14 15 16 16 16 16 16 17 17 19 20 21 23 24 26 27 28 29 29 30 31 32 34 35 36 38 40 42 45 49 53 58 63 68 73 77 80 82 80 73 63
14 14 15 16 17 17 17 17 18 19 20 21 22 23 25 26 27 28 29 29 29 30 31 32 33 34 35 37 39 41 45 48 53 57 62 67 72 76 79 81 79 72 61 50
14 15 16 17 18 19 19 20 20 21 22 24 25 26 27 28 28 28 28 29 29 30 31 32 33 34 36 38 41 44 48 52 57 62 67 71 75 78 80 78 71 60 48 38
16 17 17 18 19 20 21 22 22 23 24 25 26 26 27 27 27 27 28 28 29 30 31 32 33 35 37 40 44 48 52 56 61 66 70 74 77 78 77 71 59 48 38 28
17 18 18 19 20 21 21 22 23 24 24 25 25 26 26 26 26 27 28 28 29 30 31 32 34 37 40 43 47 52 56 61 65 69 73 75 77 76 70 59 48 38 28 18
17 17 18 18 19 20 21 22 23 23 24 24 24 24 25 25 26 27 27 28 29 30 31 34 37 40 43 47 51 56 60 64 68 72 74 77 76 69 58 47 37 28 18 9
17 18 18 18 19 19 20 21 22 22 23 23 23 24 24 25 26 27 27 28 29 31 33 36 39 43 47 51 55 59 63 67 71 73 75 75 68 57 47 37 28 18 8 2
19 19 19 19 19 20 20 21 21 22 22 23 23 24 25 25 26 26 27 29 31 33 36 39 43 47 51 55 58 63 66 69 72 74 73 66 56 46 36 27 17 7 2 5
21 20 20 20 21 21 21 22 22 22 23 24 24 25 25 25 26 27 28 30 33 36 39 43 47 50 54 58 62 65 68 71 73 72 66 55 45 35 26 17 6 3 7 9
23 23 22 22 22 23 23 23 23 23 24 24 24 25 25 25 26 28 30 33 36 39 43 47 50 54 57 61 64 67 70 71 71 65 54 44 34 26 16 6 4 8 10 10

GEFSNGP_500_meanwind_042.txt.gz
Wind_Speed
13 15 17 18 18 19 21 23 23 19 18 16 14 13 12 13 15 20 27 35 39 41 41 40 40 40 41 40 39 38 36 36 35 36 36 37 37 38 38 38 39 41 44 47
10 12 12 12 14 16 17 17 18 17 15 11 7 6 3 6 11 18 26 33 36 37 37 37 37 37 37 37 36 35 34 34 34 34 35 36 36 36 37 38 41 43 46 49
6 8 8 10 12 13 13 13 14 14 12 8 4 4 7 10 13 19 25 29 32 33 33 33 32 32 33 33 32 32 32 32 32 33 33 34 34 35 37 40 42 45 48 50
4 5 6 8 10 11 10 10 10 9 8 8 8 9 12 16 18 21 24 26 28 29 29 29 29 29 29 29 29 29 29 29 30 30 31 32 34 36 38 41 44 46 49 52
2 3 4 7 8 8 7 7 7 7 6 7 8 10 14 16 18 19 20 22 23 23 24 24 24 24 24 24 25 25 25 26 27 28 30 32 34 37 39 42 45 47 50 53
2 1 3 5 7 7 5 5 5 4 5 6 7 10 13 15 17 17 17 18 18 18 19 19 20 20 21 21 21 22 23 24 25 27 29 32 35 37 40 43 46 49 51 54
3 1 2 4 6 6 5 5 5 3 5 7 8 9 10 12 13 14 14 15 16 16 16 16 16 16 17 18 19 20 21 23 25 27 30 33 36 38 41 44 47 50 52 55
5 3 1 3 5 5 4 4 4 5 5 6 7 8 8 9 10 11 12 12 13 13 13 13 14 14 15 16 17 19 20 23 25 28 31 34 37 40 42 45 48 50 53 55
7 5 3 2 3 3 2 2 2 2 4 4 6 7 7 8 9 9 9 10 10 10 10 11 11 12 13 15 16 18 21 23 26 29 32 35 38 41 44 46 49 50 52 54
9 7 5 4 3 2 2 1 1 1 2 4 4 5 7 8 8 7 7 7 8 8 9 9 10 11 12 14 16 19 22 25 28 31 34 37 40 42 45 47 49 51 52 55
10 8 7 6 5 4 3 2 2 3 3 4 4 5 5 6 6 5 5 6 6 7 7 8 9 11 13 16 18 21 24 27 30 33 35 38 41 43 45 47 49 51 54 57
10 9 9 8 7 7 6 5 4 4 4 4 5 5 5 5 5 5 5 5 6 7 7 9 10 13 15 18 20 23 26 29 31 34 37 39 41 44 46 48 50 53 57 62
12 11 10 9 9 8 7 7 6 5 5 5 5 5 5 5 5 5 5 5 6 7 9 10 13 16 18 21 23 26 28 31 33 35 38 40 42 44 46 50 54 58 62 67
12 12 11 11 10 10 9 8 7 7 6 7 6 6 6 6 6 6 6 6 7 9 11 14 17 19 21 23 25 28 30 32 34 36 38 40 42 45 48 52 56 62 67 72
13 12 12 12 11 11 10 10 9 9 8 8 8 7 7 7 7 7 7 8 10 12 15 17 19 21 23 25 27 29 31 33 35 37 39 41 44 47 51 56 60 65 70 74
12 12 12 12 12 11 11 11 11 11 10 10 10 9 9 9 8 8 10 11 14 16 18 21 22 24 25 27 28 29 31 33 35 38 40 43 46 50 55 60 65 69 72 73
12 12 12 12 12 11 11 12 12 12 12 12 11 11 11 11 12 13 14 16 18 20 22 23 24 25 26 27 28 30 32 34 36 39 42 46 50 55 59 64 67 70 72 72
11 11 12 12 11 12 12 12 12 12 13 13 13 13 13 14 15 16 18 20 21 22 23 24 25 25 26 27 29 31 33 35 38 41 45 49 54 59 63 66 69 70 71 69
12 12 12 12 13 13 13 13 14 14 15 15 14 15 16 17 18 19 20 22 22 23 23 24 24 25 27 28 30 32 34 37 41 45 49 53 58 62 65 68 70 70 67 60
12 12 13 13 14 14 14 15 15 15 16 16 16 17 18 19 20 20 21 21 22 22 23 23 24 26 27 29 31 33 36 40 44 48 53 57 61 64 67 69 70 66 59 49
13 13 14 14 14 15 15 16 16 16 17 17 18 19 19 20 20 20 20 21 21 22 22 23 25 26 28 30 32 36 40 44 48 52 56 60 63 67 69 69 65 57 48 37
15 15 15 15 15 16 16 16 17 17 18 18 18 18 19 19 19 20 20 20 21 22 23 24 26 27 29 32 35 39 43 47 51 56 59 63 66 68 68 65 57 46 36 25
17 17 17 17 17 18 18 18 18 18 18 18 18 18 18 19 19 20 20 21 21 22 24 25 26 29 31 35 38 42 46 51 55 59 62 65 67 67 63 56 46 34 24 14
18 18 18 18 19 18 18 18 18 18 18 18 18 19 19 19 20 20 21 21 22 23 25 26 28 31 34 38 42 46 50 54 58 61 65 67 66 62 56 45 33 22 12 5
20 19 19 19 19 19 19 19 19 19 18 19 19 19 20 20 20 21 22 22 23 24 25 28 30 34 37 41 45 49 53 57 60 63 66 66 62 55 45 33 21 11 4 0
23 22 22 21 21 21 21 20 20 20 20 20 20 21 21 21 22 22 23 23 24 25 27 30 33 36 40 44 48 52 56 59 62 64 65 61 54 44 32 20 10 3 1 2
26 25 25 24 24 23 23 23 22 22 22 22 22 22 23 23 23 23 23 24 25 27 29 32 36 39 43 47 51 55 58 61 63 64 61 54 43 31 20 10 3 1 2 2

GEFSNGP_500_meanwind_048.txt.gz
Wind_Speed
21 20 18 17 18 21 23 24 24 23 26 28 31 32 34 35 33 31 30 27 23 21 22 24 27 29 32 35 36 37 37 37 37 37 36 36 36 36 36 36 37 38 40 42
19 18 16 15 16 18 18 20 21 22 23 27 29 29 28 28 26 22 19 14 10 10 13 18 21 25 29 32 33 34 34 33 33 33 33 33 33 33 34 35 37 39 41 43
17 16 14 13 14 14 15 18 19 20 22 25 25 25 24 23 20 15 11 5 1 5 11 15 20 24 26 28 29 29 29 28 29 29 29 30 30 31 33 35 37 39 41 43
15 14 13 12 11 12 14 15 16 18 20 21 22 21 20 19 18 13 10 8 8 10 13 16 19 22 23 24 24 24 24 24 24 24 25 27 28 30 32 35 37 40 41 43
13 12 11 10 10 11 11 12 14 15 16 17 18 18 17 17 17 17 15 13 15 16 17 18 19 20 20 20 19 18 18 18 19 20 22 25 27 30 33 35 37 39 41 43
11 10 9 8 8 8 9 10 12 12 13 15 15 16 16 15 16 17 18 18 17 18 18 18 18 17 16 16 15 14 15 16 18 20 22 25 27 30 32 35 36 39 41 44
11 9 8 7 7 7 7 8 10 11 11 13 13 13 13 14 14 15 15 16 16 16 15 15 15 14 13 12 12 12 13 15 17 20 23 25 27 30 32 34 37 39 42 45
11 10 9 8 7 7 7 7 8 9 10 10 10 9 9 10 11 11 12 12 13 13 12 12 12 11 11 11 11 12 14 17 19 21 23 25 27 29 32 34 37 40 43 46
12 11 10 9 8 7 7 7 7 8 7 8 7 7 7 7 8 8 8 7 8 9 8 8 9 9 9 10 12 13 14 16 18 19 21 24 27 29 33 36 39 41 44 46
12 12 11 10 9 8 7 7 7 6 5 5 6 5 4 4 6 5 5 5 5 6 6 5 5 6 7 7 8 9 11 14 16 19 22 25 28 31 34 37 40 42 44 47
14 14 12 11 10 9 8 8 7 6 5 4 3 3 2 2 3 3 3 3 3 2 2 2 2 3 4 6 7 10 12 15 18 21 24 27 30 33 36 38 40 43 45 48
16 15 14 13 12 11 10 9 8 7 7 5 4 3 2 1 1 0 1 1 1 0 1 1 2 3 5 7 10 12 15 18 20 23 26 29 32 34 37 39 41 44 47 50
16 16 15 14 14 13 11 10 9 8 7 6 5 4 3 3 2 2 2 2 2 2 3 3 5 6 9 11 13 16 18 21 23 26 29 31 33 35 37 40 43 46 48 52
16 16 16 16 15 14 13 12 11 10 9 7 6 6 5 5 4 4 4 4 5 5 5 6 8 10 12 15 17 19 22 24 26 28 29 32 34 36 38 41 44 48 52 56
17 17 16 16 15 14 14 13 12 11 11 10 8 7 7 6 6 6 6 6 6 7 8 10 12 15 17 19 21 23 24 26 27 29 31 33 35 38 40 43 47 51 56 61
16 17 17 16 15 15 14 14 14 13 12 11 10 10 9 9 9 9 9 9 10 11 13 15 17 19 21 22 23 25 26 27 28 30 32 34 36 39 43 46 50 55 60 64
16 16 17 17 16 15 14 14 14 13 13 12 12 12 12 12 12 12 12 13 14 15 17 18 20 22 23 23 24 25 27 28 29 31 33 35 39 42 46 49 54 60 63 66
16 16 16 16 16 16 15 15 14 14 14 13 13 13 13 13 13 14 14 15 16 18 19 21 22 23 23 24 25 26 27 28 30 32 34 38 41 45 48 53 58 63 65 65
16 16 16 16 15 15 15 15 15 15 15 14 14 15 15 15 15 16 16 17 19 19 21 22 22 23 24 25 26 26 28 29 31 34 37 41 44 48 52 57 62 65 64 62
16 16 16 16 15 15 15 15 15 15 15 15 15 16 16 16 16 17 18 19 20 21 21 22 23 24 24 25 26 27 28 30 33 36 40 44 47 51 56 60 64 64 60 56
16 16 16 16 16 15 15 16 16 16 16 16 16 17 17 17 18 18 19 20 20 21 21 22 23 24 25 26 27 28 30 33 36 39 43 46 50 54 59 63 63 59 54 47
16 16 16 16 16 16 16 17 17 17 17 17 17 17 17 18 18 19 19 20 20 21 22 23 24 24 25 26 28 29 32 35 38 42 45 49 53 57 61 62 59 53 45 38
17 17 17 18 17 17 17 18 18 18 18 18 18 18 18 19 20 20 20 20 21 22 23 24 24 25 26 27 29 31 34 37 41 44 48 52 55 59 61 59 53 45 37 30
20 19 19 19 19 19 19 19 19 19 19 19 19 19 20 20 20 21 21 22 22 23 24 25 26 26 27 29 31 33 36 40 43 47 50 54 58 60 58 54 47 38 31 24
22 22 21 21 21 21 21 21 21 21 21 21 20 20 21 21 22 22 22 23 24 24 25 26 26 27 28 30 32 35 38 42 45 49 52 56 59 58 55 48 40 32 25 19
25 25 25 24 24 24 23 23 22 22 22 22 22 22 23 23 23 24 24 24 25 26 26 27 27 28 30 32 34 37 40 44 47 50 54 58 59 56 49 42 34 26 20 16
28 28 28 28 27 27 27 26 25 24 25 25 25 25 25 25 25 25 25 25 26 26 27 27 28 29 31 33 37 39 42 45 49 52 56 57 56 50 43 35 27 21 16 12